User: anonymous   Login
Location: Unspecified
(0.0000°N, 0.0000°E)
Time: 19:23:48
(UTC+01:00)
Language:

Gbstr 26 Del rocket - Orbit

View from above orbital plane
View from above orbital plane
View from above satellite
View from above satellite

Ground track
Ground track

The orbit data is extracted from the following two-line orbital elements,

1 25876U 99041E   18020.85933289 -.00000143 +00000-0 +15178-4 0  9994
2 25876 051.7659 178.0209 0530666 302.5125 052.5573 14.04164004945182
Epoch (UTC): 20 January 2018 20:37:26
Eccentricity: 0.0530666
inclination: 51.7659°
perigee height: 494 km
apogee height: 1264 km
right ascension of ascending node: 178.0209°
argument of perigee: 302.5125°
revolutions per day: 14.04164004
mean anomaly at epoch: 52.5573°
orbit number at epoch: 94518

The dashed part of the orbit path shows where the satellite is in the earth's shadow,  

DLR